OneWeb SL0323

operational
NORAD ID: 49106 Int'l Des: 2021-075 Owner: ONEWEBN Country: UK Constellation: oneweb
LEOCIRCULARPOLARONEWEB_TYPE

Über OneWeb SL0323

Beschreibung wird geladen...

Live-Position

3D-Globus wird geladen...

Nächste Überflüge

Höhenverlauf

Altitude vs Time

uPlot chart will show altitude changes over time

Zweizeiliger Elementsatz

1 49106U 21075AH 25352.12994692 -.00000361 00000-0 -10392-2 0 9993
2 49106 87.8936 26.6096 0001816 118.1919 241.9393 13.12431834210800
Epoch: 18. Dez. 2025 • Age: 16 hours

Aktueller Status

Höhe 1241.6 km
Geschwindigkeit 7.23 km/s
Subsatellitenpunkt -70.87°S, 4.39°E
Startdatum 21. Aug. 2021
Alter 4.3 years
Typ internet

Technische Details

Klassifizierung Payload
Masse 148.00 kg
Trockenmasse 140.00 kg
Gesamtmasse 148.00 kg
Länge 1.30 m
Durchmesser 1.00 m
Spannweite 5.00 m
Form Trapezoid+2 pan
Hersteller ONEWUS
Bus-Typ ARROW
Phasenstatus In Orbit
Besitzer/Staat ONEWEBN/UK

Große Konstellationen

Loading constellations...